Location: Boiro
(42.6475°N, 8.8834°W)
Time: 18:30:54
(UTC+01:00)

Transit 2A - Pass Details

Date: 08 December 2021
Orbit: 591 x 967 km, 66.7° (Epoch: 20 January)

Event Time Altitude Azimuth Distance (km) Brightness Sun altitude
Rises 00:42:47 0° 210° (SSW) 3,277 - -68.0°
Reaches altitude 10° 00:45:06 10° 211° (SSW) 2,406 - -68.2°
Maximum altitude 00:50:43 85° 299° (WNW) 888 - -68.7°
Drops below altitude 10° 00:56:55 10° 30° (NNE) 2,645 - -69.1°
Sets 00:59:33 0° 31° (NNE) 3,624 - -69.2°
